Location: Burland Observatory
(39.4088°N, 105.4217°W)
Time: 09:23:57
(UTC-07:00)

Vanguard 3 - Pass Details

Date: 11 December 2019
Orbit: 508 x 3263 km, 33.3° (Epoch: 19 January)

Event Time Altitude Azimuth Distance (km) Brightness Sun altitude
Rises 10:37:36 0° 269° (W) 4,538 10.8 25.0°
Reaches altitude 10° 10:40:08 10° 266° (W) 3,850 10.5 25.2°
Maximum altitude 10:50:53 65° 188° (S) 2,530 10.6 25.8°
Drops below altitude 10° 11:08:39 10° 112° (ESE) 6,041 12.1 26.6°
Sets 11:13:47 0° 110° (ESE) 7,191 12.4 26.8°
